379P/Spacewatch (2026)

Japanese version
Home page
Updated on November 30, 2024

---------------------------------------------------------------------

* Profile

* Orbital Elements

Epoch 2026 Feb. 9.0 TT = JDT 2461080.5
T 2026 Feb. 22.86626 TT                                 MPCW
q   2.2646249            (2000.0)            P               Q
n   0.15155548     Peri.   31.60713     -0.81873705     +0.57401747
a   3.4840814      Node   183.50927     -0.56139434     -0.80512407
e   0.3500081      Incl.   12.42982     -0.12044098     -0.14926209
P   6.50
From 86 observations 2006 Mar. 26-2019 May 4, mean residual 0".6.

* Magnitudes Graph

        m1 = 14.5 + 5 log d + 10.0 log r

---------------------------------------------------------------------

The orbital elements are published on M.P.E.C. 2019-J142.
The magnitudes graphs are made with Comet for Windows.

---------------------------------------------------------------------

Copyright(C) Seiichi Yoshida (comet@aerith.net). All rights reserved.